sat.trackr.live / text

‹ back to catalog

ONEWEB-0379

NORAD 49305 · 2021-090AC

PAYLOAD ACTIVE UNKNOWN

§ Identity

Operator
Country
UK
Launch date
2021-10-14
Launch site
VOSTO
Launch vehicle
Mass (kg)
RCS (m²)

Purposes: comms

External: N2YO · Heavens-Above · Gunter

§ Orbital elements

Epoch: 2026-09-13T00:42:41.239008Z

Period
109.55 min
Inclination
87.8895°
Eccentricity
0.0002076
Mean motion
13.14500036 rev/d
Perigee alt
1,204.2 km
Apogee alt
1,207.4 km
Semi-major
7,583.9 km
B*
5.8519e-4
RAAN
272.1910°
Arg perigee
92.5144°
Mean anomaly
267.6223°
Rev number
23,910

§ Raw data

ONEWEB-03791 49305U 21090AC  26256.02964397  .00000230  00000+0  58519-3 0  99992 49305  87.8895 272.1910 0002076  92.5144 267.6223 13.14500036239106

JSON: /api/v1/satellites/49305 · /tle

For live sub-satellite position, see the globe view (requires WebGL).

§ Visibility from observer

Set your observer location to see the next 7 days of passes ≥ 10°. The values pass through the URL so the page stays shareable.

No JS? Fill the form by hand. The geolocation button needs JavaScript.